TimeEDT,TemperatureF,Dew PointF,Humidity,Sea Level PressureIn,VisibilityMPH,Wind Direction,Wind SpeedMPH,Gust SpeedMPH,PrecipitationIn,Events,Conditions,WindDirDegrees,DateUTC
12:53 AM,71.1,64.0,78,30.06,5.0,Calm,Calm,-,N/A,,Haze,0,2013-08-07 04:53:00
1:11 AM,71.6,64.4,78,30.08,5.0,Calm,Calm,-,N/A,,Haze,0,2013-08-07 05:11:00
2:18 AM,69.8,64.4,83,30.07,2.5,Calm,Calm,-,N/A,,Haze,0,2013-08-07 06:18:00
2:32 AM,69.8,64.4,83,30.07,4.0,Calm,Calm,-,N/A,,Haze,0,2013-08-07 06:32:00
2:53 AM,70.0,64.0,81,30.05,3.0,Calm,Calm,-,N/A,,Haze,0,2013-08-07 06:53:00
3:00 AM,69.8,64.4,83,30.08,2.5,Calm,Calm,-,N/A,,Haze,0,2013-08-07 07:00:00
3:38 AM,71.6,64.4,78,30.08,3.0,Calm,Calm,-,N/A,,Haze,0,2013-08-07 07:38:00
3:53 AM,71.1,64.0,78,30.04,3.0,Calm,Calm,-,N/A,,Haze,0,2013-08-07 07:53:00
4:07 AM,69.8,64.4,83,30.07,1.8,Calm,Calm,-,N/A,,Haze,0,2013-08-07 08:07:00
4:18 AM,69.8,64.4,83,30.08,1.2,Calm,Calm,-,N/A,,Haze,0,2013-08-07 08:18:00
4:53 AM,70.0,64.0,81,30.05,1.5,NE,3.5,-,N/A,,Haze,50,2013-08-07 08:53:00
5:24 AM,69.8,64.4,83,30.07,0.8,Calm,Calm,-,0.00,Rain,Light Rain,0,2013-08-07 09:24:00
5:32 AM,69.8,64.4,83,30.07,1.2,Calm,Calm,-,0.00,,Haze,0,2013-08-07 09:32:00
6:53 AM,70.0,64.0,81,30.04,0.8,Calm,Calm,-,0.01,,Haze,0,2013-08-07 10:53:00
7:53 AM,71.1,64.9,81,30.04,0.5,Calm,Calm,-,0.01,,Haze,0,2013-08-07 11:53:00
8:25 AM,71.6,64.4,78,30.06,1.2,Calm,Calm,-,0.02,,Haze,0,2013-08-07 12:25:00
8:53 AM,72.0,66.0,81,30.04,1.8,Calm,Calm,-,0.02,,Haze,0,2013-08-07 12:53:00
9:02 AM,71.6,66.2,83,30.07,2.0,Calm,Calm,-,N/A,,Haze,0,2013-08-07 13:02:00
9:43 AM,71.6,66.2,83,30.07,3.0,Calm,Calm,-,N/A,,Haze,0,2013-08-07 13:43:00
9:53 AM,72.0,66.0,81,30.04,3.0,Variable,3.5,-,N/A,,Haze,0,2013-08-07 13:53:00
10:08 AM,71.6,66.2,83,30.07,2.5,Calm,Calm,-,N/A,,Haze,0,2013-08-07 14:08:00
11:40 AM,73.4,66.2,78,30.08,1.5,Calm,Calm,-,N/A,,Haze,0,2013-08-07 15:40:00
11:53 AM,73.0,66.9,81,30.05,1.8,Calm,Calm,-,N/A,,Haze,0,2013-08-07 15:53:00
12:07 PM,73.4,66.2,78,30.07,2.5,Calm,Calm,-,N/A,,Haze,0,2013-08-07 16:07:00
12:19 PM,73.4,66.2,78,30.07,3.0,Calm,Calm,-,N/A,,Haze,0,2013-08-07 16:19:00
12:53 PM,75.0,66.9,76,30.04,4.0,Calm,Calm,-,N/A,,Haze,0,2013-08-07 16:53:00
1:29 PM,75.2,68.0,78,30.06,6.0,Calm,Calm,-,N/A,,Haze,0,2013-08-07 17:29:00
1:53 PM,77.0,68.0,74,30.03,7.0,Variable,3.5,-,N/A,,Overcast,0,2013-08-07 17:53:00
2:38 PM,78.8,69.8,74,30.04,9.0,Calm,Calm,-,N/A,,Overcast,0,2013-08-07 18:38:00
2:53 PM,82.0,68.0,62,30.01,10.0,Calm,Calm,-,N/A,,Overcast,0,2013-08-07 18:53:00
3:03 PM,84.2,68.0,58,30.04,10.0,Variable,3.5,-,N/A,,Overcast,0,2013-08-07 19:03:00
3:53 PM,84.9,69.1,59,29.98,10.0,WSW,4.6,-,N/A,,Mostly Cloudy,250,2013-08-07 19:53:00
4:53 PM,86.0,69.1,57,29.97,10.0,Calm,Calm,-,N/A,,Mostly Cloudy,0,2013-08-07 20:53:00
5:53 PM,88.0,70.0,55,29.96,10.0,NNE,3.5,-,N/A,,Partly Cloudy,20,2013-08-07 21:53:00
6:53 PM,84.0,71.1,65,29.97,9.0,Calm,Calm,-,N/A,,Overcast,0,2013-08-07 22:53:00
7:06 PM,82.4,71.6,70,30.01,9.0,Calm,Calm,-,N/A,,Mostly Cloudy,0,2013-08-07 23:06:00
7:53 PM,82.0,71.1,69,29.98,7.0,Calm,Calm,-,0.00,,Mostly Cloudy,0,2013-08-07 23:53:00
8:05 PM,82.4,71.6,70,30.03,7.0,Calm,Calm,-,N/A,,Overcast,0,2013-08-08 00:05:00
8:16 PM,82.4,71.6,70,30.03,7.0,Calm,Calm,-,0.01,Rain-Thunderstorm,Light Thunderstorms and Rain,0,2013-08-08 00:16:00
8:53 PM,81.0,71.1,72,29.99,4.0,Calm,Calm,-,0.02,Rain,Light Rain,0,2013-08-08 00:53:00
9:00 PM,80.6,71.6,74,30.03,3.0,Calm,Calm,-,0.02,Rain-Thunderstorm,Light Thunderstorms and Rain,0,2013-08-08 01:00:00
9:07 PM,80.6,71.6,74,30.03,2.5,Calm,Calm,-,0.03,Rain-Thunderstorm,Light Thunderstorms and Rain,0,2013-08-08 01:07:00
9:16 PM,80.6,71.6,74,30.04,2.5,Calm,Calm,-,0.05,Rain,Light Rain,0,2013-08-08 01:16:00
9:24 PM,80.6,71.6,74,30.04,3.0,Calm,Calm,-,0.06,Rain,Light Rain,0,2013-08-08 01:24:00
9:51 PM,80.6,69.8,70,30.04,4.0,Calm,Calm,-,0.07,Rain,Light Rain,0,2013-08-08 01:51:00
10:01 PM,80.6,69.8,70,30.05,4.0,Calm,Calm,-,0.00,Rain,Light Rain,0,2013-08-08 02:01:00
10:30 PM,80.6,69.8,70,30.04,2.5,Calm,Calm,-,0.00,,Haze,0,2013-08-08 02:30:00
10:41 PM,80.6,69.8,70,30.04,0.8,Calm,Calm,-,0.00,,Haze,0,2013-08-08 02:41:00
10:53 PM,77.0,66.9,71,30.01,6.0,ENE,6.9,-,0.00,,Haze,60,2013-08-08 02:53:00
11:03 PM,77.0,66.2,69,30.05,9.0,NE,6.9,-,N/A,,Overcast,40,2013-08-08 03:03:00
11:27 PM,75.2,64.4,69,30.06,10.0,Variable,3.5,-,N/A,,Overcast,0,2013-08-08 03:27:00
11:53 PM,75.0,64.9,71,30.01,10.0,Calm,Calm,-,N/A,,Overcast,0,2013-08-08 03:53:00